Weather History for Gainesville, GA

Change the Weather History Date:

Tuesday, December 6, 2011

  Actual Average Record
Temperature  
Mean Temperature 60 °F 46 °F  
Max Temperature 64 °F 54 °F 75 °F (1977)
Min Temperature 55 °F 37 °F 16 °F (1937)
Degree Days  
Heating Degree Days 6 19  
Month to date heating degree days 111  
Since 1 July heating degree days 646  
Growing Degree Days 10 (Base 50)    
Moisture  
Dew Point 60 °F    
Average Humidity 97    
Maximum Humidity 100    
Minimum Humidity 87    
Precipitation  
Precipitation 0.64 in 0.17 in 4.27 in (1983)
Month to date precipitation 1.04  
Year to date precipitation 50.52  
Sea Level Pressure  
Sea Level Pressure 30.03 in    
Wind  
Wind Speed 6 mph (South)    
Max Wind Speed 14 mph    
Max Gust Speed 20 mph    
Visibility 5 miles    
Events Rain    
T = Trace of Precipitation, MM = Missing Value Source: NWS Daily Summary

Daily Weather History Graph

Daily Weather History Graph

Search for Another Location

Airport:

Trip Planner

Search our weather history database for the weather conditions in past years. The results will help you decide how hot, cold, wet, or windy it might be!

Date:

Astronomy

Dec. 06, 2011 Rise Set
Actual Time 7:27 AM EST 5:25 PM EST
Civil Twilight 6:59 AM EST 5:52 PM EST
Nautical Twilight 6:28 AM EST 6:24 PM EST
Astronomical Twilight 5:58 AM EST 6:54 PM EST
Moon 2:47 PM EST (12/6) 3:50 AM EST (12/6)
Length of Visible Light 10h 53m
Length of Day
9h 58m
Waxing Gibbous, 86% of the Moon is Illuminated
Dec 6
Waxing Gibbous
Dec 10
Full
Dec 17
Last Quarter
Dec 24
New
Jan 1
First Quarter

Hourly Weather History & Observations

Time (EST) Temp. Dew Point Humidity Pressure Visibility Wind Dir Wind Speed Gust Speed Precip Events Conditions
12:53 AM 55.9 °F 55.0 °F 97% 30.11 in 6.0 mi ESE 4.6 mph - N/A   Overcast
1:53 AM 55.9 °F 55.0 °F 97% 30.09 in 4.0 mi East 5.8 mph - 0.00 in   Overcast
2:53 AM 55.9 °F 55.0 °F 97% 30.09 in 5.0 mi East 4.6 mph - 0.00 in   Overcast
3:53 AM 57.0 °F 55.9 °F 96% 30.08 in 5.0 mi ESE 3.5 mph - 0.00 in Rain Light Rain
4:16 AM 57.2 °F 55.4 °F 94% 30.10 in 2.5 mi SSE 3.5 mph - 0.02 in Rain Light Rain
4:30 AM 57.2 °F 55.4 °F 94% 30.10 in 5.0 mi SE 4.6 mph - 0.03 in Rain Light Rain
4:37 AM 57.2 °F 55.4 °F 94% 30.09 in 5.0 mi SE 6.9 mph - 0.03 in   Overcast
4:53 AM 57.0 °F 55.9 °F 96% 30.06 in 5.0 mi SSE 6.9 mph - 0.03 in   Overcast
5:18 AM 57.2 °F 57.2 °F 100% 30.08 in 5.0 mi SE 5.8 mph - N/A   Overcast
5:51 AM 57.2 °F 57.2 °F 100% 30.09 in 5.0 mi SSE 8.1 mph - N/A   Overcast
5:53 AM 57.9 °F 57.9 °F 100% 30.06 in 5.0 mi South 6.9 mph - N/A   Overcast
6:19 AM 59.0 °F 57.2 °F 94% 30.08 in 9.0 mi South 8.1 mph - N/A   Overcast
6:31 AM 59.0 °F 57.2 °F 94% 30.08 in 10.0 mi South 8.1 mph - N/A   Overcast
6:41 AM 59.0 °F 57.2 °F 94% 30.08 in 9.0 mi South 9.2 mph 16.1 mph N/A   Overcast
6:53 AM 59.0 °F 59.0 °F 100% 30.07 in 6.0 mi South 8.1 mph - 0.00 in Rain Light Rain
7:53 AM 59.0 °F 57.9 °F 96% 30.06 in 5.0 mi SE 10.4 mph - 0.00 in   Overcast
8:31 AM 57.2 °F 57.2 °F 100% 30.09 in 5.0 mi SSE 8.1 mph - 0.00 in Rain Light Rain
8:39 AM 57.2 °F 57.2 °F 100% 30.09 in 7.0 mi SSE 5.8 mph - 0.00 in   Overcast
8:42 AM 57.2 °F 57.2 °F 100% 30.09 in 8.0 mi South 5.8 mph - 0.00 in   Overcast
8:53 AM 57.9 °F 57.9 °F 100% 30.08 in 8.0 mi SSE 6.9 mph - 0.00 in   Overcast
9:25 AM 59.0 °F 57.2 °F 94% 30.10 in 8.0 mi South 4.6 mph - N/A   Overcast
9:53 AM 60.1 °F 59.0 °F 96% 30.09 in 10.0 mi South 4.6 mph - N/A   Overcast
10:09 AM 60.8 °F 57.2 °F 88% 30.10 in 10.0 mi SSE 5.8 mph - N/A   Overcast
10:53 AM 61.0 °F 59.0 °F 93% 30.07 in 10.0 mi South 5.8 mph - N/A   Overcast
11:53 AM 63.0 °F 61.0 °F 93% 30.05 in 10.0 mi South 6.9 mph - 0.01 in   Overcast
12:53 PM 63.0 °F 61.0 °F 93% 30.02 in 10.0 mi South 4.6 mph - N/A   Overcast
1:10 PM 64.4 °F 60.8 °F 88% 30.04 in 10.0 mi Variable 5.8 mph - N/A   Overcast
1:53 PM 64.9 °F 61.0 °F 87% 30.00 in 10.0 mi SSW 5.8 mph - N/A   Overcast
2:38 PM 64.4 °F 62.6 °F 94% 30.02 in 3.0 mi WSW 13.8 mph 19.6 mph 0.01 in Rain Light Rain
2:40 PM 64.4 °F 62.6 °F 94% 30.03 in 1.8 mi WSW 13.8 mph 19.6 mph 0.04 in Rain Rain
2:43 PM 64.4 °F 62.6 °F 94% 30.03 in 1.0 mi West 12.7 mph 19.6 mph 0.08 in Rain Heavy Rain
2:53 PM 63.0 °F 62.1 °F 97% 30.01 in 1.5 mi West 9.2 mph - 0.12 in Rain Heavy Rain
2:57 PM 62.6 °F 62.6 °F 100% 30.03 in 2.0 mi WSW 9.2 mph - 0.01 in Rain Light Rain
3:12 PM 62.6 °F 62.6 °F 100% 30.03 in 3.0 mi West 6.9 mph - 0.04 in Rain Light Rain
3:21 PM 62.6 °F 62.6 °F 100% 30.03 in 2.0 mi West 4.6 mph - 0.05 in Rain Light Rain
3:28 PM 62.6 °F 62.6 °F 100% 30.03 in 3.0 mi West 4.6 mph - 0.05 in Rain Light Rain
3:40 PM 62.6 °F 62.6 °F 100% 30.03 in 3.0 mi West 4.6 mph - 0.06 in Rain Light Rain
3:42 PM 62.6 °F 62.6 °F 100% 30.03 in 2.5 mi West 4.6 mph - 0.06 in Rain Light Rain
3:53 PM 62.1 °F 61.0 °F 96% 30.01 in 5.0 mi WNW 6.9 mph - 0.07 in Rain Light Rain
4:11 PM 62.6 °F 60.8 °F 94% 30.03 in 10.0 mi West 5.8 mph - 0.00 in   Overcast
4:15 PM 62.6 °F 60.8 °F 94% 30.02 in 10.0 mi West 5.8 mph - 0.00 in   Overcast
4:53 PM 62.1 °F 61.0 °F 96% 30.01 in 8.0 mi West 5.8 mph - 0.00 in Rain Light Rain
5:53 PM 61.0 °F 61.0 °F 100% 30.00 in 10.0 mi Calm Calm - 0.01 in   Overcast
6:17 PM 60.8 °F 60.8 °F 100% 30.02 in 2.0 mi Calm Calm - 0.09 in Rain Rain
6:19 PM 60.8 °F 60.8 °F 100% 30.02 in 1.5 mi South 3.5 mph - 0.11 in Rain Heavy Rain
6:26 PM 60.8 °F 60.8 °F 100% 30.01 in 1.8 mi SSE 3.5 mph - 0.14 in Rain Heavy Rain
6:28 PM 60.8 °F 60.8 °F 100% 30.01 in 2.5 mi SE 3.5 mph - 0.15 in Rain Heavy Rain
6:33 PM 60.8 °F 60.8 °F 100% 30.01 in 3.0 mi Calm Calm - 0.15 in Rain Rain
6:53 PM 61.0 °F 60.1 °F 97% 29.99 in 10.0 mi SE 3.5 mph - 0.16 in   Overcast
7:15 PM 60.8 °F 60.8 °F 100% 30.00 in 7.0 mi Calm Calm - 0.00 in Rain Light Rain
7:53 PM 61.0 °F 61.0 °F 100% 29.99 in 4.0 mi Calm Calm - 0.01 in Rain Light Rain
8:02 PM 60.8 °F 60.8 °F 100% 30.00 in 2.5 mi Calm Calm - 0.01 in Rain Light Rain
8:09 PM 60.8 °F 60.8 °F 100% 30.00 in 4.0 mi Calm Calm - 0.02 in Rain Light Rain
8:31 PM 60.8 °F 60.8 °F 100% 29.99 in 4.0 mi Calm Calm - 0.02 in Rain Light Rain
8:44 PM 60.8 °F 60.8 °F 100% 29.99 in 4.0 mi SSE 3.5 mph - 0.03 in Rain Light Rain
8:53 PM 61.0 °F 61.0 °F 100% 29.97 in 3.0 mi Calm Calm - 0.03 in   Overcast
9:25 PM 60.8 °F 60.8 °F 100% 29.99 in 2.0 mi South 4.6 mph - 0.00 in Rain Light Rain
9:35 PM 60.8 °F 60.8 °F 100% 29.99 in 3.0 mi South 4.6 mph - 0.01 in Rain Light Rain
9:53 PM 62.1 °F 62.1 °F 100% 29.96 in 7.0 mi SSW 4.6 mph - 0.01 in Rain Light Rain
10:17 PM 62.6 °F 62.6 °F 100% 29.98 in 6.0 mi SSW 3.5 mph - 0.00 in Rain Light Rain
10:53 PM 62.1 °F 62.1 °F 100% 29.94 in 5.0 mi South 4.6 mph - 0.02 in Rain Light Rain
11:37 PM 62.6 °F 62.6 °F 100% 29.95 in 2.5 mi SSW 5.8 mph - 0.08 in Rain Light Rain
11:45 PM 62.6 °F 62.6 °F 100% 29.95 in 2.0 mi SSW 5.8 mph - 0.12 in Rain Rain
11:53 PM 63.0 °F 62.1 °F 97% 29.92 in 1.8 mi South 5.8 mph - 0.17 in Rain Heavy Rain